sat.trackr.live / text

‹ back to catalog

STARLINK-2608

NORAD 48365 · 2021-038N

PAYLOAD ACTIVE UNKNOWN

§ Identity

Operator
Country
US
Launch date
2021-05-04
Launch site
AFETR
Launch vehicle
Mass (kg)
RCS (m²)

Purposes: comms

External: N2YO · Heavens-Above · Gunter

§ Orbital elements

Epoch: 2026-05-25T00:07:43.890240Z

Period
94.01 min
Inclination
53.1601°
Eccentricity
0.0001236
Mean motion
15.31714216 rev/d
Perigee alt
469.9 km
Apogee alt
471.5 km
Semi-major
6,848.8 km
B*
1.3597e-4
RAAN
352.9114°
Arg perigee
91.9609°
Mean anomaly
268.1534°
Rev number
27,892

§ Raw data

STARLINK-26081 48365U 21038N   26145.00536910  .00003858  00000+0  13597-3 0  99932 48365  53.1601 352.9114 0001236  91.9609 268.1534 15.31714216278923

JSON: /api/v1/satellites/48365 · /tle

For live sub-satellite position, see the globe view (requires WebGL).

§ Visibility from observer

Set your observer location to see the next 7 days of passes ≥ 10°. The values pass through the URL so the page stays shareable.

No JS? Fill the form by hand. The geolocation button needs JavaScript.